Tracking 19709 objects as of 17-Jun-2019
HD Live streaming from Space Station
objects crossing your sky now

SL-8 DEB

Track SL-8 DEB now!
10-day predictions


NORAD ID: 21174
Int'l Code: 1991-009AM
Perigee: 1,465.5 km
Apogee: 1,917.4 km
Inclination: 74.1 °
Period: 120.1 minutes
Semi major axis: 8062 km
RCS: 0.0735 m2 (small)
Launch date: February 12, 1991
Source: Commonwealth of Independent States (former USSR) (CIS)
Launch site: PLESETSK MISSILE AND SPACE COMPLEX (PKMTR)

Note: This is SATELLITE DEBRIS
aabbcc
Your satellite tracking list
Your tracking list is empty




NASA's NSSDC Master Catalog

Two Line Element Set (TLE):
1 21174U 91009AM  19168.47221713 -.00000049  00000-0 -41414-3 0  9998
2 21174  74.0897 334.5071 0280254 127.9707 263.1869 11.99238474238139
Source of the keplerian elements: AFSPC